Theta_e
299 298 297 297 298 298 300 300 301 301 299 298 299 299 299 299 300 300 300 300 299 298 297 296 295 295 295 295 295 295 295 295 294 294 293 292 291 291 290 290 290 291 291
294 296 297 297 296 296 297 298 299 299 301 299 297 297 297 298 299 299 300 299 299 299 298 297 296 295 294 294 294 294 295 295 294 294 292 292 291 290 289 289 289 290 290
291 291 291 293 295 296 294 295 297 298 298 299 299 296 296 296 297 298 298 299 298 299 298 297 297 295 294 294 294 293 294 294 294 294 292 291 290 289 288 288 288 289 289
288 288 288 288 288 289 291 291 292 295 296 298 298 299 297 295 295 296 296 297 297 298 298 297 297 296 296 295 293 293 292 293 292 293 292 290 290 289 287 287 287 288 288
286 286 286 286 287 287 287 288 288 289 291 294 297 298 298 297 294 294 294 295 295 296 297 297 297 296 295 294 293 293 292 292 291 291 291 290 289 288 288 288 287 287 288
285 285 286 286 286 286 285 286 286 286 286 287 291 296 299 298 296 294 293 292 293 294 295 296 296 296 296 294 293 293 292 292 291 290 290 290 290 289 288 288 288 288 288
285 285 285 285 285 285 285 285 285 285 285 285 285 287 293 296 298 297 293 291 292 292 292 294 295 296 296 295 293 292 291 290 290 290 290 290 289 289 288 287 287 287 287
285 285 285 285 285 285 285 285 285 285 285 285 285 285 286 291 295 295 294 290 290 292 290 291 293 294 295 295 293 292 291 290 289 289 287 287 288 287 286 286 286 285 285
284 283 283 284 284 285 285 285 285 284 284 284 285 285 285 286 290 295 292 292 290 290 292 289 288 289 292 293 292 290 289 290 289 288 287 286 286 285 284 285 285 284 283
282 282 281 282 282 283 284 284 285 284 284 284 284 284 284 285 286 290 293 288 290 289 288 289 291 288 287 288 287 287 288 290 288 286 285 284 284 283 283 284 283 283 283
278 279 280 279 278 279 280 282 282 283 284 284 283 283 284 284 284 286 291 290 289 288 288 289 290 290 285 285 285 287 289 288 286 286 284 284 282 282 282 283 283 283 283
276 275 275 274 274 274 274 276 278 279 280 282 282 282 283 284 284 285 288 292 289 287 287 287 287 288 288 286 284 286 286 284 285 285 283 283 282 282 282 282 282 283 281
273 272 271 271 270 270 270 271 271 272 274 278 279 279 281 282 283 284 285 289 291 286 286 286 287 287 286 285 284 284 284 283 284 284 282 282 282 282 281 282 283 279 278
269 268 267 267 267 266 267 267 268 269 271 272 275 276 279 281 282 282 284 288 289 287 285 286 286 286 285 284 283 283 282 282 282 283 282 282 281 280 282 282 279 278 277
265 264 263 264 264 264 265 265 266 267 269 270 272 273 276 280 281 282 282 285 287 288 285 285 283 283 283 282 282 283 281 280 280 280 280 280 282 282 280 278 278 277 277
263 263 263 262 263 263 263 264 265 267 268 270 272 273 274 276 279 282 282 282 284 284 284 283 282 283 282 282 283 281 280 280 280 280 281 284 283 280 280 277 276 276 275
263 263 263 262 263 263 263 263 264 265 266 268 270 272 274 276 278 282 282 283 283 284 284 283 282 283 282 282 282 282 280 281 281 283 283 281 280 280 277 277 275 274 275
263 264 263 263 263 263 263 264 264 264 265 266 268 270 272 276 281 282 284 283 283 283 283 282 282 282 282 281 281 281 281 281 281 281 280 279 279 278 278 275 274 274 274
264 264 264 264 264 264 264 264 265 265 265 266 268 271 275 278 279 281 284 283 283 283 283 281 281 281 282 281 281 280 281 280 280 280 279 279 277 277 274 274 274 274 273
264 264 265 265 265 266 266 265 266 266 266 267 268 271 276 277 279 281 284 283 283 283 283 281 280 280 281 281 280 279 279 279 279 278 277 276 275 273 273 274 273 273 272
265 265 266 266 267 267 268 268 268 268 269 269 272 275 276 277 278 281 284 283 282 282 282 280 280 280 281 281 280 278 278 278 278 277 276 274 273 274 273 273 272 272 272
265 267 267 268 268 269 270 272 272 272 272 273 274 275 276 277 279 281 282 282 281 281 281 281 280 280 280 280 279 277 277 277 276 275 274 274 273 273 272 272 272 271 271
267 267 268 269 269 270 271 272 273 273 274 274 275 275 276 277 279 280 281 280 280 279 279 279 280 279 279 277 276 276 276 275 275 275 274 274 273 272 271 271 271 271 270
267 268 268 269 270 270 271 271 272 273 273 274 274 275 276 277 278 279 278 278 278 277 277 277 277 278 277 275 274 274 274 274 274 273 272 272 271 271 271 270 270 270 269
267 268 269 269 270 270 271 271 271 272 272 273 273 274 274 276 276 276 276 276 275 276 276 276 275 275 274 274 274 274 274 273 272 271 271 271 270 270 270 270 270 269 269
268 268 269 269 270 271 271 271 271 271 271 271 272 273 273 274 274 274 274 274 274 274 273 273 273 273 273 273 273 273 272 271 270 270 270 270 270 270 270 269 269 269 269
Wind_Speed
28 28 27 26 25 25 24 23 24 25 24 24 27 31 34 38 42 49 59 61 62 60 60 59 56 54 52 50 47 44 42 39 36 32 29 28 29 30 28 25 22 18 16
28 27 27 28 28 28 29 29 28 27 28 28 26 29 33 37 40 45 49 58 63 63 63 61 59 58 56 54 52 50 46 43 39 38 33 33 33 32 31 27 24 21 18
28 28 29 28 26 28 29 29 29 30 28 30 31 29 31 36 39 44 47 50 58 62 64 64 62 61 59 59 56 54 51 47 44 40 39 35 36 35 32 29 26 22 20
29 30 30 32 32 30 29 30 29 29 31 29 28 32 31 34 37 40 45 50 54 57 60 66 64 63 62 62 60 57 54 52 48 45 43 41 38 35 33 30 28 24 21
29 31 33 34 34 34 35 34 33 32 31 31 31 25 29 34 37 37 42 47 53 56 56 61 66 65 65 63 63 61 58 54 52 49 47 46 43 40 37 32 29 25 23
30 31 33 35 37 38 39 37 39 38 37 35 34 32 29 29 34 34 38 45 45 53 57 59 62 64 65 64 64 60 60 57 56 54 50 50 47 42 37 34 30 27 24
32 35 37 38 40 41 42 45 43 42 41 42 40 38 36 31 29 31 35 42 42 47 54 57 59 62 62 63 63 60 61 57 52 53 54 50 46 41 38 36 31 28 25
34 35 37 41 44 46 47 47 48 49 47 47 46 45 43 42 33 30 33 35 41 45 47 51 57 62 63 60 61 63 63 59 56 54 53 46 40 38 37 33 29 26 26
40 40 39 40 42 45 49 52 51 52 54 52 51 50 47 46 41 36 30 36 41 45 45 48 54 59 60 58 56 62 64 61 57 55 49 45 42 40 37 34 30 27 23
45 46 48 48 48 47 48 49 54 58 58 59 58 54 52 50 43 41 35 35 41 44 46 47 49 54 55 54 49 57 62 63 60 55 49 45 42 42 38 34 31 26 23
38 48 54 55 56 59 59 57 55 56 61 64 62 61 57 53 48 44 40 36 41 43 46 49 52 51 48 46 44 52 55 58 57 51 48 45 43 41 39 35 29 25 28
39 42 46 53 57 61 61 63 63 60 58 61 65 63 60 57 51 46 41 41 39 43 44 48 50 48 46 46 43 48 48 46 53 52 50 48 44 40 36 30 27 31 28
56 57 52 49 50 52 52 54 52 53 52 57 57 53 55 49 52 46 42 38 38 40 43 48 50 43 36 39 44 51 44 50 53 54 52 49 44 38 33 30 31 30 28
57 55 49 45 45 43 43 43 43 44 43 42 45 46 44 40 44 42 40 36 33 35 41 47 45 41 35 36 41 49 46 54 52 51 48 44 41 36 33 33 31 27 25
47 45 43 41 40 40 39 39 39 40 39 40 41 39 40 39 37 31 33 32 27 31 35 43 39 34 28 40 43 49 47 43 45 44 44 42 36 36 33 30 27 26 24
44 42 40 41 41 40 41 42 38 38 39 41 44 45 49 46 40 37 32 29 24 21 36 43 40 37 34 43 42 43 46 46 43 42 38 39 39 36 32 29 27 25 24
41 42 42 41 41 40 40 40 42 40 33 34 36 38 40 44 41 40 35 33 26 24 42 44 40 39 37 40 41 46 48 43 40 39 41 39 37 33 31 28 25 23 20
38 40 41 41 41 41 40 40 39 39 39 39 30 28 30 29 31 34 37 30 27 30 44 42 40 38 38 43 43 45 43 44 41 40 39 36 34 32 28 26 24 20 17
38 39 39 41 41 41 41 41 39 38 38 37 37 27 19 19 22 27 28 32 27 30 39 38 37 37 39 43 44 46 47 45 42 39 36 36 32 27 25 22 19 16 14
36 36 37 39 40 40 39 37 36 34 33 32 29 22 11 15 17 21 27 30 23 25 34 36 35 38 36 38 42 43 43 42 39 36 33 30 25 24 21 19 17 15 13
33 36 34 33 34 35 36 35 32 29 26 23 20 15 15 18 16 13 22 26 20 22 32 36 37 30 29 34 35 37 39 37 35 32 29 25 24 21 18 16 13 12 13
29 28 28 27 27 26 26 24 22 21 19 19 19 18 14 15 14 15 21 20 19 20 25 30 29 26 25 28 29 30 32 33 32 30 26 23 20 18 16 14 13 12 12
23 23 23 23 21 20 19 15 13 15 14 13 11 10 6 3 11 13 14 11 12 14 19 24 25 24 21 20 20 24 29 31 28 24 21 19 18 17 16 15 13 11 12
20 20 20 20 20 20 19 17 15 13 10 8 4 3 2 7 10 9 9 10 13 18 20 20 20 18 17 20 24 26 24 22 20 19 17 18 18 16 15 13 11 11 13
20 19 19 20 20 21 20 19 18 16 14 12 10 9 11 11 10 11 13 15 18 20 20 19 19 21 23 25 24 21 20 18 17 17 17 15 15 14 13 11 10 13 16
21 20 21 21 21 22 22 21 20 19 18 16 15 15 16 18 18 20 22 22 23 23 23 24 24 23 21 20 19 17 15 15 15 14 14 13 12 11 11 11 12 15 18
Wind_Direction
349 350 353 354 351 350 346 335 313 297 288 280 279 275 269 264 258 254 247 245 243 240 238 236 236 235 235 234 233 232 231 231 233 237 234 233 232 231 233 242 247 251 259
350 345 341 341 344 345 343 342 340 324 302 289 279 273 272 266 262 259 255 249 245 242 240 238 237 235 235 235 234 233 231 231 232 237 237 233 231 232 237 241 243 248 255
344 345 344 342 334 331 337 337 334 333 331 309 290 281 274 269 265 261 259 256 253 248 245 243 239 237 236 235 234 233 231 229 227 231 236 236 235 235 238 240 245 247 253
339 338 339 339 340 340 334 331 330 328 324 327 313 292 282 277 269 264 262 260 256 253 249 247 245 242 240 238 236 235 232 231 227 225 228 233 235 236 237 238 245 250 256
335 334 333 332 331 331 332 330 329 325 322 317 316 313 291 280 276 270 266 261 259 257 253 250 247 245 243 242 240 237 234 231 231 226 221 226 229 231 233 237 242 250 256
327 327 326 325 325 326 328 328 328 328 325 320 314 310 303 291 278 276 277 269 262 258 255 253 252 248 246 244 244 243 242 237 232 232 228 226 229 232 235 237 238 245 254
313 315 317 318 318 319 320 320 322 323 323 322 319 313 303 299 298 281 270 269 265 261 258 255 253 250 248 245 243 243 242 240 240 243 238 235 231 232 234 234 235 242 248
303 302 304 308 310 312 312 313 315 317 317 316 316 313 307 299 297 295 272 266 264 261 259 257 255 252 249 244 240 240 238 236 234 235 236 239 238 236 233 232 235 239 242
304 302 301 299 298 300 303 306 308 309 309 310 308 307 305 298 294 291 286 268 259 258 257 257 251 251 250 246 242 237 235 234 231 233 231 232 232 232 230 228 226 232 240
307 304 303 301 298 294 293 294 298 301 300 301 301 300 299 297 292 286 282 266 261 257 254 253 253 253 249 248 234 235 233 233 226 223 223 224 226 230 230 228 225 224 233
297 300 299 298 297 297 295 292 289 288 290 293 293 294 294 293 291 285 277 264 259 254 249 252 251 247 240 239 225 237 241 235 227 224 222 219 218 217 220 222 225 235 238
297 293 290 292 293 293 293 292 290 288 285 282 287 288 288 289 289 282 278 273 260 248 246 250 253 251 247 242 223 237 234 221 225 218 216 216 214 213 216 220 231 239 237
298 295 293 291 288 289 289 290 288 288 286 282 280 282 282 282 285 282 276 272 269 246 249 248 252 254 252 241 227 222 218 210 219 215 214 214 215 216 214 219 229 229 232
299 296 295 293 291 287 285 283 282 281 280 276 276 275 278 275 277 276 275 272 265 254 242 246 246 244 246 235 215 212 203 208 214 214 213 212 210 207 213 218 219 227 232
304 300 299 297 294 291 286 281 278 275 272 273 271 271 270 273 270 273 274 275 266 262 239 234 226 227 223 213 207 203 200 205 208 206 205 202 204 210 208 211 217 223 235
307 302 299 297 295 292 289 288 285 278 275 271 269 267 271 269 268 267 266 268 259 251 229 222 218 224 214 203 197 195 197 205 207 203 203 210 210 205 205 208 216 223 230
304 304 302 297 293 291 289 287 288 293 284 276 272 269 266 266 262 260 259 259 254 228 222 221 214 216 204 198 195 199 194 206 205 208 207 205 203 201 201 210 215 220 229
311 310 303 298 295 292 289 287 286 285 288 290 288 276 272 265 259 248 252 250 249 223 216 215 210 212 202 195 200 203 203 203 207 205 203 203 201 202 202 204 213 223 233
313 311 309 306 299 296 293 287 284 283 283 285 293 295 264 248 258 251 241 234 238 229 211 209 209 204 208 206 207 208 212 206 204 205 202 202 200 198 199 206 214 227 243
317 310 308 305 305 302 298 290 288 286 286 288 290 294 285 285 274 247 231 225 234 229 207 202 201 201 206 213 211 211 209 204 204 202 200 197 193 195 201 209 217 229 254
323 319 319 315 312 310 307 300 298 299 298 297 298 307 290 282 277 259 209 215 227 227 206 202 202 207 215 215 215 214 208 205 204 200 195 188 194 198 204 212 223 243 258
323 327 331 332 333 327 323 317 312 311 312 313 313 304 299 282 268 212 200 205 223 228 215 216 212 211 216 218 218 213 208 199 193 192 189 191 195 200 206 216 230 247 271
339 341 345 348 351 352 352 350 336 319 309 300 305 304 319 310 191 209 206 218 212 196 196 200 205 201 203 209 209 202 191 187 185 185 190 190 196 208 212 218 232 254 279
355 357 0 4 8 11 13 15 16 13 6 4 1 10 96 153 154 168 173 175 174 173 174 178 179 182 179 170 170 172 172 175 178 181 188 197 201 207 215 226 246 270 289
15 16 18 20 24 27 30 35 37 38 43 50 58 77 99 108 107 127 136 140 141 143 145 150 151 152 158 163 164 167 172 171 175 186 194 201 208 218 228 242 265 282 292
34 35 37 37 39 39 42 45 45 48 55 63 78 91 99 103 110 116 122 126 130 133 135 138 141 146 149 156 162 163 167 176 185 193 201 208 218 228 243 262 276 291 298